St. Stephen, New Brunswick

3:56 AM AST on January 16, 2018 (GMT -0400)
St. Stephen

Weather History for CWSS - February, 2012

Change the Weather History Date:

Friday, February 10, 2012

  Actual Average Record
Temperature  
Mean Temperature 24 °F -  
Max Temperature 45 °F - - ()
Min Temperature 3 °F - - ()
Degree Days  
Heating Degree Days 41    
Moisture  
Dew Point 18 °F    
Average Humidity 74    
Maximum Humidity 96    
Minimum Humidity 32    
Precipitation  
Precipitation 0.00 in - - ()
Sea Level Pressure  
Sea Level Pressure 30.01 in    
Wind  
Wind Speed 2 mph ()    
Max Wind Speed 13 mph    
Max Gust Speed 20 mph    
T = Trace of Precipitation, MM = Missing Value Source: Averaged Metar Reports

Daily Weather History Graph

Daily Weather History Graph

Search for Another Location

Airport or City:

Trip Planner

Search our weather history database for the weather conditions in past years. The results will help you decide how hot, cold, wet, or windy it might be!

Date:

Astronomy

Feb. 10, 2012 Rise Set
Actual Time 7:38 AM AST 5:48 PM AST
Civil Twilight 7:07 AM AST 6:19 PM AST
Nautical Twilight 6:32 AM AST 6:54 PM AST
Astronomical Twilight 5:58 AM AST 7:28 PM AST
Moon 9:36 PM AST (2/10) 8:33 AM AST (2/10)
Length of Visible Light 11h 11m
Length of Day
10h 10m
Waning Gibbous, 90% of the Moon is Illuminated
Feb 10
Waning Gibbous
Feb 14
Last Quarter
Feb 21
New
Feb 29
First Quarter
Mar 8
Full

Hourly Weather History & Observations

Time (AST) Temp. Windchill Dew Point Humidity Pressure Visibility Wind Dir Wind Speed Gust Speed Precip Events Conditions
12:00 AM 17.6 °F - 13.5 °F 84% 30.02 in - West 2.3 mph - N/A   Unknown
1:00 AM 14.2 °F - 11.5 °F 89% 30.02 in - Calm Calm - N/A   Unknown
2:00 AM 13 °F - 11 °F 89% 30.04 in - West 1.2 mph - -  
2:00 AM 13.1 °F - 11.3 °F 93% 30.04 in - West 1.2 mph - N/A   Unknown
3:00 AM 10.6 °F - 8.8 °F 92% 30.06 in - West 1.2 mph - N/A   Unknown
4:00 AM 9.0 °F - 7.2 °F 92% 30.06 in - Calm Calm - N/A   Unknown
5:00 AM 7 °F - 5 °F 87% 30.07 in - Calm Calm - -  
5:00 AM 7.0 °F - 5.0 °F 92% 30.07 in - Calm Calm - N/A   Unknown
6:00 AM 5.5 °F - 3.4 °F 91% 30.07 in - Calm Calm - N/A   Unknown
7:00 AM 4.6 °F - 2.3 °F 90% 30.09 in - NE 1.2 mph - N/A   Unknown
8:00 AM 4 °F - 2 °F 85% 30.10 in - Calm Calm - -  
8:00 AM 4.3 °F - 1.8 °F 89% 30.10 in - Calm Calm - N/A   Unknown
9:00 AM 13.5 °F - 8.1 °F 79% 30.11 in - Calm Calm - N/A   Unknown
10:00 AM 22.3 °F - 13.1 °F 68% 30.10 in - SSE 1.2 mph - N/A   Unknown
11:00 AM 33 °F - 18 °F 40% 30.09 in - North 1.2 mph - -  
11:00 AM 31.5 °F - 17.6 °F 57% 30.09 in - North 1.2 mph - N/A   Unknown
12:00 PM 41.0 °F 35.8 °F 22.1 °F 47% 30.06 in - South 8.1 mph - N/A   Unknown
1:00 PM 43.5 °F 37.5 °F 21.7 °F 42% 30.01 in - South 11.5 mph 19.6 mph N/A   Unknown
2:00 PM 45 °F - 25 °F 32% 29.98 in - South 10.4 mph - -  
2:00 PM 45.0 °F 39.7 °F 24.6 °F 45% 29.98 in - South 10.4 mph - N/A   Unknown
3:00 PM 45.0 °F 39.7 °F 26.8 °F 49% 29.97 in - South 10.4 mph - N/A   Unknown
4:00 PM 43.5 °F 37.1 °F 27.9 °F 54% 29.96 in - South 12.7 mph 19.6 mph N/A   Unknown
5:00 PM 42 °F - 29 °F 49% 29.95 in - South 8.1 mph - -  
5:00 PM 42.1 °F 37.1 °F 29.1 °F 60% 29.95 in - South 8.1 mph - N/A   Unknown
6:00 PM 37.9 °F 35.5 °F 28.0 °F 68% 29.95 in - SSE 3.5 mph - N/A   Unknown
7:00 PM 36.1 °F 32.3 °F 28.4 °F 73% 29.95 in - South 4.6 mph - N/A   Unknown
8:00 PM 35 °F - 29 °F 72% 29.94 in - South 2.3 mph - -  
8:00 PM 34.7 °F - 29.3 °F 81% 29.94 in - South 2.3 mph - N/A   Unknown
9:00 PM 29.7 °F - 27.0 °F 90% 29.93 in - South 1.2 mph - N/A   Unknown
10:00 PM 28.4 °F - 27.0 °F 94% 29.93 in - NNE 1.2 mph - N/A   Unknown
11:00 PM 30 °F - 29 °F 95% 29.91 in - SE 2.3 mph - -  
11:00 PM 30.2 °F - 29.1 °F 96% 29.91 in - SE 2.3 mph - N/A   Unknown